Regional Weather Roundup
Issued by NWS State College, PA

Home | Current Version | Previous Version | Text Only | Print | Product List | Glossary Off
Versions: 1 2 3 4 5 6 7 8 9 10 11 12 13 14 15 16 17 18 19 20 21 22 23 24 25 26 27 28 29 30 31 32 33 34 35 36 37 38 39 40 41 42 43 44 45 46 47 48 49 50

564
ASUS41 KCTP 300110
RWRCTP

REGIONAL WEATHER ROUNDUP
NATIONAL WEATHER SERVICE STATE COLLEGE PA
900 PM EDT MON MAY 29 2017

Note: "fair" indicates few or no clouds below 12,000 feet with no
significant weather and/or obstructions to visibility.

* = STATION THAT DOES NOT REPORT PRECIPITATION /E.G. RAIN...SNOW...ETC/
    THUNDER OR FOG.

PAZ002>004-007>009-013>016-020>023-029>032-300200-
WESTERN PENNSYLVANIA

CITY           SKY/WX    TMP DP  RH WIND       PRES   REMARKS
ERIE           CLOUDY    66  58  75 S5        29.88R
MEADVILLE      PTCLDY    67  52  58 S6        29.93R
FRANKLIN*      CLEAR     64  48  55 SW9       29.94S
NEW CASTLE     FAIR      65  56  72 CALM      29.94S
BEAVER COUNTY  NOT AVBL
BUTLER*        CLOUDY    64  55  72 S3        29.96S
PITTSBURGH INT CLOUDY    66  58  75 E5        29.95S
PITTSBURGH     CLOUDY    69  52  54 NW5       29.96R
INDIANA*       MOCLDY    68  55  64 CALM      29.99S
LATROBE        MOCLDY    70  55  60 S5        29.97R
WASHINGTON CO* CLOUDY    66  59  77 NW12      29.98R
$$

PAZ004>006-010>012-017>019-024>028-033>037-041-042-045-046-049>053-300200-
CENTRAL PENNSYLVANIA

CITY           SKY/WX    TMP DP  RH WIND       PRES   REMARKS
BRADFORD       CLEAR     60  54  80 CALM      29.96S
DUBOIS         PTCLDY    66  48  52 VRB3      29.96R
CLEARFIELD     CLEAR     67  51  56 CALM      29.97R
JOHNSTOWN      CLEAR     66  48  52 S5        30.00R
ALTOONA        CLEAR     68  53  58 S7        29.99R
STATE COLLEGE  CLEAR     66  50  55 CALM      29.97R
WILLIAMSPORT   CLEAR     67  60  78 E6        29.94R
SELINSGROVE    CLEAR     64  61  90 SE5       29.97R
FT INDIANTOWN  CLOUDY    62  62 100 E5        30.01R
CAPITAL CITY   CLOUDY    68  62  81 E10       29.98R
HARRISBURG     CLOUDY    67  63  87 SE12      29.98R
YORK           PTCLDY    66  65  96 SE8       29.98S
$$

PAZ038>040-043-044-047-048-054-055-060>062-067>071-300200-
EASTERN PENNSYLVANIA

CITY           SKY/WX    TMP DP  RH WIND       PRES   REMARKS
SCRANTON       CLOUDY    60  57  89 MISG      30.00S
MOUNT POCONO   FOG       52  52 100 SE7       30.03S VSB 1/2
ALLENTOWN      CLOUDY    59  55  87 E9        30.04R
QUAKERTOWN*    CLOUDY    57  57 100 E6        30.05R
READING        CLOUDY    62  60  93 SE7       30.01S
LANCASTER      CLOUDY    65  62  90 SE8       30.01R
COATESVILLE    CLOUDY    61  59  94 SE8       30.04R FOG
POTTSTOWN      CLOUDY    59  57  93 CALM      30.04S
BLUE BELL      CLOUDY    55  55 100 E3        30.05S
DOYLESTOWN     CLOUDY    58  56  93 CALM      30.04R
WILLOW GROVE   NOT AVBL
NORTH PHILA    CLOUDY    61  53  75 E10       30.06R
PHILADELPHIA   CLOUDY    61  56  83 E12       30.03S
$$




USA.gov is the U.S. government's official web portal to all federal, state and local government web resources and services.